Regional Weather Roundup
Issued by NWS Newport/Morehead, NC

Current Version | Previous Version | Graphics & Text | Print | Product List | Glossary Off
Versions: 1 2 3 4 5 6 7 8 9 10 11 12 13 14 15 16 17 18 19 20 21 22 23 24 25 26 27 28 29 30 31 32 33 34 35 36 37 38 39 40 41 42 43 44 45 46 47 48 49 50
000 ASUS42 KMHX 290225 RWRMHX WEATHER ROUNDUP FOR EASTERN NORTH CAROLINA NATIONAL WEATHER SERVICE NEWPORT/MOREHEAD CITY NC 1000 PM EDT WED SEP 28 2016 NOTE: "FAIR" INDICATES FEW OR NO CLOUDS BELOW 12,000 FEET WITH NO SIGNIFICANT WEATHER AND/OR OBSTRUCTIONS TO VISIBILITY NCZ015>017-031-032-045>047-102-103-290300- NORTH COAST CITY SKY/WX TMP DP RH WIND PRES REMARKS EDENTON CLEAR 76 76 100 SE10 29.99F ELIZABETH CITY CLEAR 74 71 91 SE9 30.01S KITTY HAWK PTCLDY 74 73 98 SE3 30.01S MANTEO CLEAR 73 73 97 S7 30.02S $$ NCZ045>047-081-094-103-104-290300- CENTRAL COAST CITY SKY/WX TMP DP RH WIND PRES REMARKS FRISCO PTCLDY 75 73 93 E6 30.02S $$ NCZ095-097-098-100-101-290300- SOUTHERN COAST CITY SKY/WX TMP DP RH WIND PRES REMARKS BEAUFORT CLEAR 79 72 79 SE8 30.00S CEDAR ISLAND NOT AVBL JACKSONVILLE CLEAR 75 70 84 CALM 29.99S PINEY ISLAND CLEAR N/A N/A N/A SE7 30.00S WILMINGTON CLEAR 77 70 79 SE5 29.99R $$ NCZ011>013-027>030-043-044-078>080-089-090>093-098-290300- COASTAL PLAIN CITY SKY/WX TMP DP RH WIND PRES REMARKS AHOSKIE CLOUDY 72 70 93 SE8 29.97R CLINTON MOCLDY 73 71 93 SE3 29.97F ELIZABETHTOWN CLOUDY 74 71 90 SE3 29.98S GOLDSBORO PTCLDY 75 75 100 SE8 29.94F GREENVILLE CLEAR 75 72 88 S15 29.99S HAVELOCK CLEAR 75 69 81 SE9 30.00F KENANSVILLE CLEAR 72 70 94 CALM 29.98S KINSTON CLEAR 74 71 89 S6 29.99R NEW BERN CLEAR 74 69 85 SE5 30.01S RICHLANDS CLEAR 74 71 91 S8 29.99S ROCKY MOUNT CLOUDY 72 72 100 CALM 29.97R WASHINGTON CLEAR 73 68 84 SE9 29.99F WHITEVILLE CLEAR 75 72 88 SE3 29.98R $$ AMZ130-135-150-152-154-156-158-170-250-252-270-ANZ085-086-088-633-658-670-290300- MARINE OBSERVATIONS STATION/POSITION TIME TEMP WIND PRES WAVE SWELL AIR SEA DIR/SP/G HT/PER HT/PER (UTC) (F) (DEG/KT/KT) (MB) (FT/S) (FT/S) CHESAPEAKE LIGHT NOT AVBL 64 E VA BEACH 0150 75 75 120/ 6/ 8 1016.7 5/ 8 5/ 8 DUCK 0200 76 77 130/ 13/ 14 1015.9 2 E DUCK 0141 77 N/A 3/11 2/11 OREGON INLET 0200 75 79 120/ 4/ 5 1016.7 13E OREGON INLT 0200 77 N/A 4/ 8 3/ 8 HATTERAS CG 0200 77 78 110/ 7/ 10 1016.0 DIAMOND BUOY 0150 81 84 140/ 10/ 12 1016.6 4/ 7 3/ 7 CAPE LOOKOUT 0200 80 140/ 10/ 11 1015.7 BEAUFORT LAB 0200 79 77 150/ 8/ 10 1015.3 30 SE NEW RVR IN 0208 81 83 150/ 14/ 19 1015.6 30 SE NEW RVR IN 0155 83 N/A 3/ 7 2/11 27 SE WRIGHTSVLE 0208 81 81 160/ 12/ 14 1015.8 5 SE WRIGHTSVLE 0108 81 81 170/ 12/ 16 1016.3 225 S CAPE HAT 0150 82 83 210/ 14/ 17 1017.0 5/ 7 3/ 7 41 SE CHARLESTON 0150 83 82 190/ 12/ 14 1014.8 2/11 2/11 $$

USA.gov is the U.S. government's official web portal to all federal, state and local government web resources and services.